{"data":{"norad_id":45747,"intl_designator":"2020-038T","name":"STARLINK-1506","alt_names":[],"object_type":"PAYLOAD","status":"ACTIVE","operator":null,"country":"US","launch_date":"2020-06-13","launch_site_code":"AFETR","launch_vehicle":null,"mission":null,"orbit_class":"UNKNOWN","rcs_meters":null,"size_class":null,"mass_kg":null,"dimensions":null,"purposes":["comms"],"wikipedia_slug":null,"has_3d_model":false,"image_url":null,"decayed_at":null,"tle_current":{"epoch":"2026-09-19T22:42:45.811584Z","epoch_age_seconds":66150,"freshness":"FRESH","line1":"1 45747U 20038T   26262.94636356  .00006452  00000+0  21936-3 0  9990","line2":"2 45747  53.0742  20.1504 0003678 145.5835 214.5404 15.31720156346405","mean_motion":15.31720156,"eccentricity":0.0003678,"inclination_deg":53.0742,"raan_deg":20.1504,"arg_perigee_deg":145.5835,"mean_anomaly_deg":214.5404,"bstar":0.00021936,"rev_number":34640,"period_min":94.01195083575,"perigee_km":468.16091703716,"apogee_km":473.19890675755,"semimajor_km":6848.8169118974,"source":"CELESTRAK","updated_at":"2026-09-20T09:00:38.456691Z"}}}